Home   Weather   Busan   Past weeks

Flag for South Korea Past Weather in Busan, South Korea — Yesterday and Last 2 Weeks

Now
39 °F

Clear.


Feels Like: 37 °F
Forecast: 41 / 50 °F
Wind: 3 mph from West

Location: Pusan / Kimhae International Airport

Current Time: Nov 19, 2017 at 8:12:06 pm

Latest Report: Nov 19, 2017 at 7:00 pm


Visibility: 10 mi

Pressure: 30.27 "Hg

Humidity: 48%

Dew Point: 21 °F

Location of BusanLocation

Past Weather in Busan — Graph

°F

Busan Temperature Yesterday

Maximum temperature yesterday: 52 °F (at 12:00 am)
Minimum temperature yesterday: 36 °F (at 11:00 pm)
Average temperature yesterday: 46 °F

High & Low Weather Summary for the Past Weeks

 TemperatureHumidityPressure
High73 °F (Nov 8, 1:00 pm)94% (Nov 7, 1:00 am)30.39 "Hg (Nov 7, 1:00 am)
Low32 °F (Nov 19, 3:00 am)25% (Nov 5, 2:00 pm)29.86 "Hg (Nov 10, 5:00 pm)
Average51 °F60%30.13 "Hg
* Reported Nov 4 6:00 pm — Nov 19 6:00 pm, Busan. Weather by CustomWeather, © 2017

Note: Actual official high and low records may vary slightly from our data, if they occured in-between our weather recording intervals... More about our weather records

Advertising

Busan Weather History for the Previous 24 Hours

Scroll right to see more
 ConditionsComfort  
Time TempWeatherWind HumidityBarometerVisibility
6:00 pm
Sun, Nov 19
41 °FClear.3 mph42%30.24 "Hg10 mi
5:00 pm43 °FSunny.5 mph39%30.24 "Hg10 mi
4:00 pm45 °FSunny.9 mph39%30.27 "Hg10 mi
3:00 pm45 °FSunny.12 mph42%30.27 "Hg10 mi
2:00 pm43 °FSunny.10 mph42%30.27 "Hg10 mi
1:00 pm43 °FSunny.16 mph42%30.27 "Hg10 mi
12:00 pm43 °FSunny.16 mph42%30.30 "Hg10 mi
11:00 am39 °FSunny.14 mph42%30.33 "Hg10 mi
10:00 am37 °FSunny.13 mph41%30.33 "Hg10 mi
9:00 am36 °FSunny.13 mph44%30.33 "Hg10 mi
8:00 am34 °FSunny.12 mph48%30.33 "Hg10 mi
7:00 am32 °FClear.14 mph55%30.27 "Hg10 mi
6:00 am32 °FClear.13 mph60%30.27 "Hg10 mi
5:00 am32 °FClear.16 mph55%30.24 "Hg10 mi
4:00 am32 °FClear.14 mph51%30.24 "Hg10 mi
3:00 am32 °FClear.10 mph51%30.21 "Hg10 mi
2:00 am34 °FClear.17 mph48%30.18 "Hg10 mi
1:00 am34 °FClear.22 mph44%30.18 "Hg10 mi
12:00 am34 °FClear.15 mph48%30.18 "Hg10 mi
11:00 pm
Sat, Nov 18
36 °FClear.22 mph44%30.15 "Hg10 mi
10:00 pm37 °FClear.16 mph41%30.15 "Hg10 mi
9:00 pm37 °FClear.20 mph45%30.12 "Hg10 mi
8:00 pm39 °FClear.16 mph42%30.12 "Hg10 mi
Weather by CustomWeather, © 2017

See weather overview